sat.trackr.live / text

‹ back to catalog

STARLINK-35208

NORAD 65854 · 2025-223A

PAYLOAD ACTIVE UNKNOWN

§ Identity

Operator
Country
US
Launch date
2025-10-03
Launch site
AFWTR
Launch vehicle
Mass (kg)
RCS (m²)

Purposes: comms

External: N2YO · Heavens-Above · Gunter

§ Orbital elements

Epoch: 2026-05-25T04:00:03.998880Z

Period
93.85 min
Inclination
53.1588°
Eccentricity
0.0000880
Mean motion
15.34390712 rev/d
Perigee alt
462.1 km
Apogee alt
463.3 km
Semi-major
6,840.9 km
B*
-6.6970e-4
RAAN
298.6107°
Arg perigee
105.5456°
Mean anomaly
103.1425°
Rev number
575

§ Raw data

STARLINK-352081 65854U 25223A   26145.16671295 -.00022927  00000+0 -66970-3 0  99912 65854  53.1588 298.6107 0000880 105.5456 103.1425 15.34390712  5753

JSON: /api/v1/satellites/65854 · /tle

For live sub-satellite position, see the globe view (requires WebGL).

§ Visibility from observer

Set your observer location to see the next 7 days of passes ≥ 10°. The values pass through the URL so the page stays shareable.

No JS? Fill the form by hand. The geolocation button needs JavaScript.